Weather History for Soldotna, AK

Change the Weather History Date:

Thursday, October 7, 2010

  Actual Average Record
Temperature  
Mean Temperature 36 °F -  
Max Temperature 44 °F 46 °F 56 °F (1993)
Min Temperature 28 °F 33 °F 12 °F (1958)
Degree Days  
Heating Degree Days 29    
Moisture  
Dew Point 29 °F    
Average Humidity 91    
Maximum Humidity 100    
Minimum Humidity 76    
Precipitation  
Precipitation 0.00 in - - ()
Sea Level Pressure  
Sea Level Pressure 29.58 in    
Wind  
Wind Speed 1 mph (East)    
Max Wind Speed 6 mph    
Max Gust Speed -    
Visibility 5 miles    
Events      
Averages and records for this station are not official NWS values.
T = Trace of Precipitation, MM = Missing Value Source: NWS Daily Summary

Daily Weather History Graph

Daily Weather History Graph

Search for Another Location

Airport:

Trip Planner

Search our weather history database for the weather conditions in past years. The results will help you decide how hot, cold, wet, or windy it might be!

Date:

Astronomy

Oct. 07, 2010 Rise Set
Actual Time 8:25 AM AKDT 7:17 PM AKDT
Civil Twilight 7:42 AM AKDT 7:59 PM AKDT
Nautical Twilight 6:53 AM AKDT 8:48 PM AKDT
Astronomical Twilight 6:03 AM AKDT 9:38 PM AKDT
Moon 8:50 AM AKDT (10/7) 6:31 PM AKDT (10/7)
Length of Visible Light 12h 16m
Length of Day
10h 52m
New Moon, 0% of the Moon is Illuminated
Oct 7
New Moon
Oct 14
First Quarter
Oct 22
Full
Oct 30
Last Quarter
Nov 5
New

Hourly Weather History & Observations

Time (AKDT) Temp. Windchill Dew Point Humidity Pressure Visibility Wind Dir Wind Speed Gust Speed Precip Events Conditions
12:56 AM 32.0 °F - 30.2 °F 93% 29.60 in 10.0 mi Calm Calm - N/A   Clear
1:21 AM 30.2 °F - 28.4 °F 93% 29.60 in 2.5 mi Calm Calm - N/A   Mostly Cloudy
1:25 AM 30.2 °F 26.7 °F 28.4 °F 93% 29.60 in 1.8 mi East 3.5 mph - N/A   Overcast
1:40 AM 30.2 °F 26.7 °F 28.4 °F 93% 29.59 in 2.0 mi East 3.5 mph - N/A   Scattered Clouds
1:42 AM 30.2 °F - 28.4 °F 93% 29.59 in 3.0 mi Calm Calm - N/A   Partly Cloudy
1:56 AM 30.2 °F 26.7 °F 28.4 °F 93% 29.59 in 10.0 mi East 3.5 mph - N/A   Partly Cloudy
2:05 AM 30.2 °F 25.4 °F 28.4 °F 93% 29.59 in 2.0 mi East 4.6 mph - N/A   Scattered Clouds
2:06 AM 30.2 °F 25.4 °F 28.4 °F 93% 29.59 in 1.5 mi East 4.6 mph - N/A   Scattered Clouds
2:08 AM 30.2 °F 25.4 °F 28.4 °F 93% 29.59 in 0.8 mi East 4.6 mph - N/A   Mostly Cloudy
2:17 AM 30.2 °F - 30.2 °F 100% 29.59 in 1.0 mi Calm Calm - N/A   Overcast
2:20 AM 32.0 °F - 30.2 °F 93% 29.59 in 2.5 mi Calm Calm - N/A   Mostly Cloudy
2:21 AM 32.0 °F - 30.2 °F 93% 29.59 in 3.0 mi Calm Calm - N/A   Mostly Cloudy
2:56 AM 30.2 °F - 28.4 °F 93% 29.59 in 10.0 mi Calm Calm - N/A   Mostly Cloudy
3:56 AM 28.4 °F - 26.6 °F 93% 29.59 in 4.0 mi Calm Calm - N/A   Mostly Cloudy
4:03 AM 28.4 °F - 26.6 °F 93% 29.59 in 2.0 mi Calm Calm - N/A   Mostly Cloudy
4:04 AM 28.4 °F - 28.4 °F 100% 29.59 in 1.8 mi Calm Calm - N/A   Mostly Cloudy
4:17 AM 28.4 °F 24.6 °F 26.6 °F 93% 29.59 in 2.0 mi East 3.5 mph - N/A   Mostly Cloudy
4:20 AM 30.2 °F - 28.4 °F 93% 29.59 in 3.0 mi Calm Calm - N/A   Mostly Cloudy
4:22 AM 30.2 °F - 28.4 °F 93% 29.59 in 2.5 mi Calm Calm - N/A   Mostly Cloudy
4:29 AM 28.4 °F - 26.6 °F 93% 29.59 in 1.8 mi Calm Calm - N/A   Overcast
4:39 AM 28.4 °F 24.6 °F 28.4 °F 100% 29.59 in 0.8 mi East 3.5 mph - N/A   Overcast
4:48 AM 28.4 °F 24.6 °F 26.6 °F 93% 29.59 in 1.0 mi East 3.5 mph - N/A   Mostly Cloudy
4:54 AM 28.4 °F - 26.6 °F 93% 29.59 in 2.0 mi Calm Calm - N/A   Scattered Clouds
4:56 AM 28.4 °F - 26.6 °F 93% 29.59 in 3.0 mi Calm Calm - N/A   Partly Cloudy
5:16 AM 28.4 °F 23.3 °F 24.8 °F 86% 29.59 in 2.5 mi East 4.6 mph - N/A   Partly Cloudy
5:17 AM 28.4 °F 23.3 °F 24.8 °F 86% 29.59 in 1.5 mi East 4.6 mph - N/A   Scattered Clouds
5:19 AM 28.4 °F 23.3 °F 24.8 °F 86% 29.59 in 0.8 mi East 4.6 mph - N/A   Mostly Cloudy
5:23 AM 28.4 °F 23.3 °F 26.6 °F 93% 29.59 in 0.2 mi ENE 4.6 mph - N/A   Overcast
5:33 AM 28.4 °F 24.6 °F 26.6 °F 93% 29.59 in 0.5 mi East 3.5 mph - N/A   Mostly Cloudy
5:48 AM 28.4 °F - 24.8 °F 86% 29.59 in 1.0 mi Calm Calm - N/A   Mostly Cloudy
5:52 AM 28.4 °F - 26.6 °F 93% 29.59 in 2.5 mi Calm Calm - N/A   Partly Cloudy
5:53 AM 28.4 °F - 26.6 °F 93% 29.59 in 3.0 mi Calm Calm - N/A   Partly Cloudy
5:56 AM 28.4 °F - 24.8 °F 86% 29.59 in 8.0 mi Calm Calm - N/A   Partly Cloudy
6:56 AM 28.4 °F 23.3 °F 26.6 °F 93% 29.59 in 10.0 mi ENE 4.6 mph - N/A   Clear
7:56 AM 28.4 °F 24.6 °F 26.6 °F 93% 29.58 in 10.0 mi East 3.5 mph - N/A   Overcast
8:56 AM 30.2 °F 24.3 °F 28.4 °F 93% 29.58 in 10.0 mi East 5.8 mph - N/A   Overcast
9:56 AM 32.0 °F 28.7 °F 30.2 °F 93% 29.58 in 10.0 mi East 3.5 mph - N/A   Overcast
10:56 AM 33.8 °F - 30.2 °F 87% 29.58 in 10.0 mi Calm Calm - N/A   Scattered Clouds
11:56 AM 35.6 °F 31.7 °F 33.8 °F 93% 29.59 in 10.0 mi East 4.6 mph - N/A   Overcast
12:56 PM 37.4 °F - 33.8 °F 87% 29.59 in 10.0 mi Calm Calm - N/A   Overcast
1:56 PM 39.2 °F - 37.4 °F 93% 29.58 in 7.0 mi Calm Calm - N/A   Overcast
2:56 PM 42.8 °F - 39.2 °F 87% 29.57 in 10.0 mi Calm Calm - N/A   Overcast
3:56 PM 42.8 °F - 37.4 °F 81% 29.56 in 10.0 mi Calm Calm - N/A   Overcast
4:56 PM 44.6 °F - 39.2 °F 81% 29.55 in 10.0 mi Calm Calm - N/A   Mostly Cloudy
5:56 PM 44.6 °F - 37.4 °F 76% 29.54 in 10.0 mi Calm Calm - N/A   Overcast
6:56 PM 39.2 °F - 35.6 °F 87% 29.54 in 10.0 mi Calm Calm - N/A   Clear
7:56 PM 37.4 °F - 33.8 °F 87% 29.54 in 10.0 mi Calm Calm - N/A   Overcast
8:56 PM 35.6 °F - 33.8 °F 93% 29.55 in 10.0 mi Calm Calm - N/A   Overcast
9:56 PM 33.8 °F - 30.2 °F 87% 29.55 in 10.0 mi Calm Calm - N/A   Scattered Clouds
10:56 PM 30.2 °F - 28.4 °F 93% 29.55 in 10.0 mi Calm Calm - N/A   Clear
11:56 PM 30.2 °F - 28.4 °F 93% 29.55 in 10.0 mi Calm Calm - N/A   Clear